This is the latest recevied weather packets stored in our database for station/object AB4KN. If no packets are shown the sender has not sent any weather packets the latest 1 day(s).
| Time | Temp. | Humidity | Pressure | Rain* | Wind** | Luminosity | Snow |
|---|---|---|---|---|---|---|---|
| 1778114726 | 24.44° C | 74% | 1018.1 hPa | 0 mm | - | 0 W/m² | - |
| 1778114119 | 24.44° C | 74% | 1018.1 hPa | 0 mm | - | 0 W/m² | - |
| 1778113814 | 24.44° C | 74% | 1018 hPa | 0 mm | - | 0 W/m² | - |
| 1778113511 | 24.44° C | 74% | 1018.1 hPa | 0 mm | - | 0 W/m² | - |
| 1778113207 | 24.44° C | 74% | 1018 hPa | 0 mm | - | 0 W/m² | - |
| 1778112297 | 25° C | 73% | 1018 hPa | 0 mm | - | 0 W/m² | - |
| 1778111084 | 25° C | 73% | 1017.7 hPa | 0 mm | - | 4 W/m² | - |
| 1778110174 | 25° C | 73% | 1017.2 hPa | 0 mm | - | 5 W/m² | - |
| 1778109566 | 25° C | 71% | 1017.4 hPa | 0 mm | - | 4 W/m² | - |
| 1778108961 | 25.56° C | 71% | 1017.7 hPa | 0 mm | - | 2 W/m² | - |
| 1778108354 | 25.56° C | 71% | 1017.7 hPa | 0 mm | - | 4 W/m² | - |
| 1778107748 | 25.56° C | 70% | 1017.8 hPa | 0 mm | - | 2 W/m² | - |
| 1778106230 | 25.56° C | 70% | 1017.5 hPa | 0 mm | - | 26 W/m² | - |
| 1778105928 | 25.56° C | 69% | 1017.6 hPa | 0 mm | - | 29 W/m² | - |
| 1778105625 | 25.56° C | 69% | 1017.8 hPa | 0 mm | - | 15 W/m² | - |
| 1778105018 | 25.56° C | 70% | 1017.7 hPa | 0 mm | - | 21 W/m² | - |
| 1778104715 | 25.56° C | 70% | 1017.5 hPa | 0 mm | - | 10 W/m² | - |
| 1778104107 | 26.11° C | 68% | 1017.5 hPa | 0 mm | - | 20 W/m² | - |
| 1778103804 | 26.67° C | 68% | 1017.3 hPa | 0 mm | - | 41 W/m² | - |
| 1778103199 | 26.11° C | 68% | 1017.3 hPa | 0 mm | - | 68 W/m² | - |
| 1778102592 | 26.67° C | 68% | 1017.7 hPa | 0 mm | - | 55 W/m² | - |
| 1778102287 | 26.67° C | 66% | 1017.6 hPa | 0 mm | - | 58 W/m² | - |
| 1778100770 | 26.11° C | 68% | 1017.7 hPa | 0 mm | - | 57 W/m² | - |
| 1778100467 | 26.11° C | 68% | 1018 hPa | 0 mm | - | 64 W/m² | - |
| 1778100165 | 26.11° C | 67% | 1018.2 hPa | 0 mm | - | 68 W/m² | - |
* Rain latest hour (hover to see other rain measurements)
** Current wind speed in m/s (hover to see current wind gust speed)